STARLINK-4094 (53147 NORAD) Tracking and Keplerian Element Data

This shows tracking and keplerian element data for the satellite.

Feedback or suggestion? Click here.




ElementValue
Catalog53147
NameSTARLINK-4094
Epoch Orbit130
Epoch Day269.91667824
Epoch Year2022
RAAN69.4448
Inclination53.2168
Eccentricity0.0001722
Argument of Perigee45.1904
Mean Anonmoly171.6023
Mean Motion15.08829434
Decay Rate0.00020517
L11 53147U 22083R 22269.91667824 .00020517 00000+0 13038-2 0 9990
L22 53147 53.2168 69.4448 0001722 45.1904 171.6023 15.08829434 1305

Live tracking and technical data element details for STARLINK-4094 (NORAD 53147). STARLINK-4094 can be tracked NOW for your location showing map with azimuth and elevation plus other details from your city location.

Track the satellite on the map from your city or location and see movement details for azimuth, elevation, latitude, longitude, range, height, and movement on the map or in text.







IsCatalogInMostPopularTable: catalog: 53147, numindb: 7
Update: records affected: 1



GetName: 53147 STARLINK-4094

Hit Count: updated at: Fri, 30 Sep 2022 02:48:07 GMT